CST,Max TemperatureF,Mean TemperatureF,Min TemperatureF,Max Dew PointF,MeanDew PointF,Min DewpointF,Max Humidity, Mean Humidity, Min Humidity, Max Sea Level PressureIn, Mean Sea Level PressureIn, Min Sea Level PressureIn, Max VisibilityMiles, Mean VisibilityMiles, Min VisibilityMiles, Max Wind SpeedMPH, Mean Wind SpeedMPH, Max Gust SpeedMPH,PrecipitationIn, CloudCover, Events, WindDirDegrees
2012-11-1,83,64,46,52,47,44,90,58,30,30.05,29.97,29.90,10.0,9.8,3.0,12,3,16,0.00,0,,166
2012-11-2,86,69,52,58,53,48,91,61,27,29.99,29.93,29.89,10.0,10.0,10.0,13,4,22,0.00,0,,190
2012-11-3,77,66,55,61,52,40,97,63,37,30.09,30.03,29.94,10.0,10.0,10.0,10,6,,0.00,0,,305
2012-11-4,70,60,52,52,47,40,87,65,51,30.17,30.11,30.06,10.0,9.9,4.0,13,4,,0.00,3,Thunderstorm,115
2012-11-5,72,60,46,52,44,30,94,65,23,30.10,30.04,29.97,10.0,10.0,10.0,22,6,29,0.00,3,,348
2012-11-6,68,53,38,40,38,36,91,60,34,30.17,30.09,30.03,10.0,10.0,10.0,10,5,,0.00,0,,307
2012-11-7,70,56,42,40,34,27,76,47,22,30.19,30.13,30.09,10.0,9.9,5.0,12,4,16,0.00,0,,358
2012-11-8,73,58,43,50,42,33,75,55,39,30.18,30.08,29.99,10.0,10.0,10.0,15,8,23,0.00,0,,134
2012-11-9,79,66,53,61,55,45,92,69,46,30.07,30.00,29.93,10.0,10.0,10.0,21,8,31,0.00,3,,156
2012-11-10,78,70,61,60,58,54,90,68,45,30.06,29.96,29.88,10.0,10.0,10.0,20,10,30,0.00,5,,165
2012-11-11,72,56,39,66,53,34,95,82,69,30.24,29.96,29.81,10.0,9.8,3.0,21,13,30,0.00,8,Rain-Thunderstorm,291
2012-11-12,56,43,30,34,24,18,86,53,23,30.50,30.43,30.26,10.0,9.9,7.0,13,6,18,0.00,0,,355
2012-11-13,57,43,29,33,24,17,87,53,21,30.53,30.44,30.35,10.0,9.4,0.5,9,3,,0.00,0,,102
2012-11-14,59,46,33,33,28,25,89,53,27,30.45,30.37,30.29,10.0,10.0,10.0,6,2,,0.00,1,,146
2012-11-15,59,45,31,32,31,28,92,61,34,30.36,30.31,30.26,10.0,10.0,10.0,6,3,,0.00,0,,141
2012-11-16,64,48,31,35,31,28,90,57,26,30.43,30.37,30.32,10.0,10.0,10.0,8,2,,0.00,0,,88
2012-11-17,64,48,31,32,30,26,90,55,25,30.44,30.36,30.30,10.0,10.0,10.0,10,3,,0.00,0,,122
2012-11-18,65,52,39,36,34,31,75,52,33,30.35,30.28,30.21,10.0,10.0,10.0,10,5,,0.00,0,,137
2012-11-19,72,62,51,49,42,36,63,53,38,30.25,30.19,30.13,10.0,10.0,10.0,13,6,18,0.00,7,,139
2012-11-20,77,62,47,54,48,42,82,60,42,30.22,30.17,30.13,10.0,10.0,10.0,6,3,,0.00,1,,355
2012-11-21,76,60,43,49,44,39,98,62,27,30.29,30.20,30.13,10.0,9.8,4.0,10,4,,0.00,0,,154
2012-11-22,75,64,54,52,46,42,73,55,34,30.14,30.09,30.01,10.0,10.0,10.0,18,7,28,0.00,2,Rain,181
2012-11-23,61,49,35,53,32,20,89,47,21,30.43,30.34,30.12,10.0,10.0,10.0,23,8,31,0.00,2,,9
2012-11-24,58,44,29,23,20,17,71,44,20,30.41,30.28,30.13,10.0,10.0,10.0,8,4,,0.00,0,,188
2012-11-25,71,51,31,46,35,22,81,56,30,30.12,29.96,29.86,10.0,10.0,10.0,16,6,23,0.00,0,,147
2012-11-26,69,57,45,58,48,36,90,78,63,30.23,30.00,29.89,10.0,10.0,10.0,17,7,26,0.00,6,,65
2012-11-27,56,46,36,36,31,28,77,55,36,30.42,30.33,30.24,10.0,9.8,2.5,10,6,16,0.00,2,,354
2012-11-28,61,46,30,34,31,28,90,63,34,30.46,30.36,30.28,10.0,9.6,0.8,12,5,16,0.00,0,,129
2012-11-29,65,50,36,42,33,30,83,57,28,30.29,30.21,30.11,10.0,10.0,10.0,13,6,18,0.00,0,,135
2012-11-30,64,54,43,57,48,33,87,75,61,30.18,30.11,30.06,10.0,10.0,7.0,10,6,16,0.00,6,,144